Weather in Ataq

Yemen     14°31′53″N   46°50′20″E
temp.,
°C
wind,
m/s
gust,
m/s
humid.,
%
clouds,
%
prec.,
mm/h
press.,
hPa
HPBL,
m
12 may, wed
wed1200:00+25sse5957100 0.0 1010345
03:00+24se4656100 0.0 1010230
06:00+25sse2246100 0.0 101019
09:00+29se1223100 0.0 1011528
12:00+32sse3318100 0.0 10092336
15:00+33se6519100 0.0 10063126
18:00+30s663499 0.0 1007487
21:00+27sse464686 0.0 1009245
13 may, thu
thu1300:00+25se45535 0.0 1009131
03:00+24sse335583 0.0 100842
06:00+25sse2247100 0.0 100917
09:00+30ssw11243 0.0 1009642
12:00+34ese141880 0.0 10072818
15:00+34e0419100 0.0 10043187
18:00+31sse5530100 0.0 1005776
21:00+28sse454167 0.0 1008238
14 may, fri
fri1400:00+27se3444100 0.0 1007127
03:00+26se334510 0.0 100640
06:00+26se224699 0.0 100821
09:00+31sse2329100 0.0 1008673
12:00+35ese361654 0.0 10063584
15:00+35ene241350 0.0 10033985
18:00+34n6913100 0.0 1004492
21:00+29se3443100 0.0 1007167
15 may, sat
sat1500:00+28se4548100 0.0 1006131
03:00+28se2235100 0.0 100618
06:00+27se223269 0.0 100714
09:00+33se36155 0.0 10071799
12:00+35ese35116 0.0 10053646
15:00+36ene34105 0.0 10034117
18:00+33sse24240 0.0 1004236
21:00+29sse45424 0.0 1006252
16 may, sun
sun1600:00+28se343746 0.0 100656
03:00+27se333189 0.0 100621
06:00+26sse332993 0.0 100719
09:00+32sse351718 0.0 1007817
12:00+35se451296 0.0 10043942
15:00+36ese551285 0.0 10024342
18:00+31s8835100 0.0 1004439
21:00+29se574018 0.0 1007371